सभी
Dimmit County Airport (Carrizo Springs, TX) CZT मौसम
|
Carrizo Springs, TX (KCZT)
स्वच्छ आकाश
हल्की हवाएं |
|
32 °C |
There is no TAF data available at CZT or any nearby airports.
Recent CZT METAR history
| Date | Time (CDT) | Flight Rules | Wind Dir. | Speed | Type | Height AGL (ft) | Visibility | Temp (°C) | Temp (°F) | Dew Point (°C) | Dew Point (°F) | Rel. Humid. | Pressure | Density Altitude | Remarks |
|---|---|---|---|---|---|---|---|---|---|---|---|---|---|---|---|
| 05-मई | 13:35 | VFR | 200° | 8 kt | Clear |
10 miles | 32° | 89° | 21° | 69° | 52% | 29.74 in Hg | 2,818 ft | ||
| 05-मई | 13:15 | VFR | 190° | 7 kt | Clear |
10 miles | 32° | 89° | 21° | 69° | 52% | 29.74 in Hg | 2,818 ft | ||
| 05-मई | 12:55 | VFR | 180° | 6 kt | 10 miles | 32° | 89° | 21° | 69° | 52% | 29.75 in Hg | 2,808 ft | |||
| 05-मई | 12:35 | VFR | 170° | 8 kt | 10 miles | 31° | 87° | 21° | 69° | 55% | 29.76 in Hg | 2,678 ft | |||
| 05-मई | 12:15 | VFR | 180° | 6 kt | 10 miles | 31° | 87° | 21° | 69° | 55% | 29.76 in Hg | 2,678 ft | |||
| 05-मई | 11:55 | VFR | 210° | 7 kt | 10 miles | 30° | 86° | 22° | 71° | 62% | 29.76 in Hg | 2,558 ft | |||
| 05-मई | 11:35 | VFR | 160° | 8 kt | 10 miles | 28° | 82° | 21° | 69° | 66% | 29.76 in Hg | 2,318 ft | |||
| 05-मई | 11:15 | VFR | 180° | 7 kt | 10 miles | 28° | 82° | 21° | 69° | 66% | 29.77 in Hg | 2,308 ft | |||
| 05-मई | 10:55 | VFR | 190° | 5 kt | 10 miles | 27° | 80° | 22° | 71° | 74% | 29.77 in Hg | 2,188 ft | |||
| 05-मई | 10:15 | VFR | 170° | 5 kt | 10 miles | 25° | 77° | 23° | 73° | 89% | 29.78 in Hg | 1,938 ft | |||
| 05-मई | 09:55 | VFR | 170° | 4 kt | 10 miles | 24° | 75° | 23° | 73° | 94% | 29.79 in Hg | 1,808 ft | |||
| 05-मई | 09:35 | VFR | 190° | 4 kt | 10 miles | 24° | 75° | 23° | 73° | 94% | 29.79 in Hg | 1,808 ft | |||
| 05-मई | 09:15 | VFR | 170° | 6 kt | 10 miles | 23° | 73° | 23° | 73° | 100% | 29.79 in Hg | 1,688 ft | |||
| 05-मई | 08:55 | VFR | 190° | 5 kt | 10 miles | 23° | 73° | 23° | 73° | 100% | 29.79 in Hg | 1,688 ft | |||
| 05-मई | 08:15 | VFR | 160° | 3 kt | 10 miles | 22° | 71° | 22° | 71° | 100% | 29.77 in Hg | 1,588 ft | |||
| 05-मई | 07:55 | VFR | 170° | 4 kt | 10 miles | 22° | 71° | 22° | 71° | 100% | 29.77 in Hg | 1,588 ft | |||
| 05-मई | 07:15 | VFR | 180° | 5 kt | 10 miles | 22° | 71° | 22° | 71° | 100% | 29.77 in Hg | 1,588 ft | |||
| 05-मई | 06:55 | VFR | 180° | 4 kt | 10 miles | 22° | 71° | 22° | 71° | 100% | 29.75 in Hg | 1,608 ft | |||
| 05-मई | 06:15 | VFR | 170° | 6 kt | 10 miles | 22° | 71° | 22° | 71° | 100% | 29.75 in Hg | 1,608 ft | |||
| 05-मई | 05:55 | VFR | 170° | 9 kt | 10 miles | 22° | 71° | 22° | 71° | 100% | 29.75 in Hg | 1,608 ft | |||
| 05-मई | 05:35 | VFR | 180° | 9 kt | 10 miles | 22° | 71° | 22° | 71° | 100% | 29.75 in Hg | 1,608 ft | |||
| 05-मई | 05:15 | VFR | 170° | 6 kt | 10 miles | 21° | 69° | 21° | 69° | 100% | 29.75 in Hg | 1,488 ft | |||
| 05-मई | 04:55 | VFR | 170° | 6 kt | 10 miles | 21° | 69° | 21° | 69° | 100% | 29.75 in Hg | 1,488 ft | |||
| 05-मई | 04:35 | VFR | 140° | 3 kt | 10 miles | 21° | 69° | 21° | 69° | 100% | 29.75 in Hg | 1,488 ft |
लॉगिन
| Your browser is unsupported. अपना ब्राऊजर अपग्रेड करें |
